Weather History for Laramie, WY

Change the Weather History Date:

Saturday, April 28, 2012

  Actual Average Record
Temperature  
Mean Temperature 38 °F 42 °F  
Max Temperature 51 °F 55 °F 71 °F (2007)
Min Temperature 24 °F 28 °F 8 °F (1984)
Degree Days  
Heating Degree Days 27 23  
Month to date heating degree days 580 769  
Since 1 July heating degree days 7553 8004  
Cooling Degree Days 0 0  
Month to date cooling degree days 0 0  
Year to date cooling degree days 0 0  
Moisture  
Dew Point 13 °F    
Average Humidity 39    
Maximum Humidity 60    
Minimum Humidity 18    
Precipitation  
Precipitation 0.00 in 0.04 in 0.70 in (1950)
Month to date precipitation 0.54 0.98  
Year to date precipitation 1.65 2.17  
Sea Level Pressure  
Sea Level Pressure 29.90 in    
Wind  
Wind Speed 15 mph (West)    
Max Wind Speed 31 mph    
Max Gust Speed 40 mph    
Visibility 10 miles    
Events      
T = Trace of Precipitation, MM = Missing Value Source: NWS Daily Summary

Daily Weather History Graph

Daily Weather History Graph

Search for Another Location

Airport:

Trip Planner

Search our weather history database for the weather conditions in past years. The results will help you decide how hot, cold, wet, or windy it might be!

Date:

Astronomy

Apr. 28, 2012 Rise Set
Actual Time 6:03 AM MDT 7:57 PM MDT
Civil Twilight 5:33 AM MDT 8:27 PM MDT
Nautical Twilight 4:57 AM MDT 9:03 PM MDT
Astronomical Twilight 4:18 AM MDT 9:43 PM MDT
Moon 11:45 AM MDT (4/28) 1:24 AM MDT (4/28)
Length of Visible Light 14h 53m
Length of Day
13h 54m
Waxing Crescent, 43% of the Moon is Illuminated
Apr 28
Waxing Crescent
Apr 29
First Quarter
May 5
Full
May 12
Last Quarter
May 20
New

Hourly Weather History & Observations

Time (MDT) Temp. Windchill Dew Point Humidity Pressure Visibility Wind Dir Wind Speed Gust Speed Precip Events Conditions
12:53 AM 28.4 °F 14.1 °F 12.2 °F 51% 29.93 in 10.0 mi WSW 24.2 mph 31.1 mph N/A   Partly Cloudy
1:53 AM 27.0 °F 14.7 °F 12.9 °F 56% 29.86 in 10.0 mi WSW 16.1 mph - N/A   Clear
2:53 AM 24.1 °F 13.7 °F 12.0 °F 60% 29.89 in 10.0 mi WSW 10.4 mph - N/A   Clear
3:53 AM 26.1 °F 15.6 °F 12.0 °F 55% 29.89 in 10.0 mi West 11.5 mph - N/A   Clear
4:53 AM 26.1 °F 13.6 °F 12.9 °F 58% 29.92 in 10.0 mi WSW 16.1 mph - N/A   Clear
5:53 AM 25.0 °F 11.7 °F 12.9 °F 60% 29.96 in 10.0 mi WSW 17.3 mph - N/A   Partly Cloudy
6:53 AM 27.0 °F 14.7 °F 14.0 °F 58% 29.97 in 10.0 mi WSW 16.1 mph - N/A   Clear
7:53 AM 32.0 °F 19.8 °F 15.1 °F 50% 29.95 in 10.0 mi SW 20.7 mph 29.9 mph N/A   Clear
8:53 AM 34.0 °F 20.3 °F 12.9 °F 42% 29.94 in 10.0 mi WSW 29.9 mph 38.0 mph N/A   Clear
9:53 AM 37.9 °F 26.3 °F 10.9 °F 33% 29.92 in 10.0 mi West 26.5 mph 36.8 mph N/A   Clear
10:53 AM 41.0 °F 31.6 °F 9.0 °F 27% 29.89 in 10.0 mi WSW 20.7 mph 34.5 mph N/A   Clear
11:53 AM 43.0 °F 33.3 °F 10.9 °F 27% 29.88 in 10.0 mi West 25.3 mph 36.8 mph N/A   Clear
12:53 PM 45.0 °F 38.5 °F 12.0 °F 26% 29.87 in 10.0 mi West 13.8 mph 26.5 mph N/A   Partly Cloudy
1:53 PM 46.0 °F 39.6 °F 12.0 °F 25% 29.86 in 10.0 mi West 15.0 mph 25.3 mph N/A   Clear
2:53 PM 46.9 °F - 12.9 °F 25% 29.87 in 10.0 mi West 15.0 mph 28.8 mph N/A   Mostly Cloudy
3:53 PM 50.0 °F - 12.9 °F 23% 29.83 in 10.0 mi WNW 18.4 mph 23.0 mph N/A   Mostly Cloudy
4:53 PM 48.9 °F - 9.0 °F 20% 29.83 in 10.0 mi West 17.3 mph 26.5 mph N/A   Partly Cloudy
5:53 PM 50.0 °F - 9.0 °F 19% 29.85 in 10.0 mi West 21.9 mph 28.8 mph N/A   Mostly Cloudy
6:53 PM 48.2 °F - 10.4 °F 22% 29.94 in 10.0 mi WNW 17.3 mph - N/A   Mostly Cloudy
7:53 PM 42.1 °F 37.1 °F 12.9 °F 31% 29.89 in 10.0 mi WNW 8.1 mph - N/A   Clear
8:53 PM 37.0 °F 33.3 °F 16.0 °F 42% 29.93 in 10.0 mi West 4.6 mph - N/A   Mostly Cloudy
9:53 PM 39.9 °F 37.8 °F 17.1 °F 40% 29.91 in 10.0 mi NE 3.5 mph - N/A   Overcast
10:53 PM 37.9 °F - 18.0 °F 45% 29.89 in 10.0 mi Calm Calm - N/A   Overcast
11:53 PM 36.0 °F 31.1 °F 19.9 °F 52% 29.88 in 10.0 mi West 5.8 mph - N/A   Overcast